Location: Stockholm
(59.3330°N, 18.0500°E)
Time: 07:13:06
(UTC+02:00)

VELOX 1 - Visible Passes

Search period start: 16 July 2024 00:00
Search period end: 26 July 2024 00:00
Orbit: 602 x 616 km, 98.3° (Epoch: 15 July)

Date Brightness Start Highest point End Pass type
(mag) Time Alt. Az. Time Alt. Az. Time Alt. Az.
16 Jul ? 23:17:09 10° N 23:20:21 21° NW 23:23:32 10° W visible
17 Jul ? 23:31:16 10° N 23:34:07 18° NW 23:36:57 10° W visible
18 Jul ? 23:45:27 10° N 23:47:51 15° NW 23:50:15 10° W visible
19 Jul ? 23:59:42 10° NNW 00:01:33 13° NW 00:03:24 10° WNW visible
21 Jul ? 00:14:14 10° NNW 00:15:14 11° NW 00:16:14 10° NW visible
21 Jul ? 22:50:27 10° N 22:54:13 30° WNW 22:57:56 10° WSW visible
22 Jul ? 23:04:27 10° N 23:07:57 25° NW 23:11:27 10° WSW visible
23 Jul ? 23:18:27 10° N 23:21:40 21° NW 23:24:53 10° W visible
24 Jul ? 23:32:30 10° N 23:35:21 18° NW 23:38:14 10° W visible
25 Jul ? 23:46:35 10° N 23:49:01 15° NW 23:51:28 10° W visible
